Location: Aragoneses
(41.0275°N, 4.3847°W)
Time: 02:35:53
(UTC+00:00)

Cosmos 1980 Rocket - Pass Details

Date: 11 December 2025
Orbit: 830 x 847 km, 71.0° (Epoch: 14 January)

Event Time Altitude Azimuth Distance (km) Brightness Sun altitude
Rises 19:52:12 0° 246° (WSW) 3,391 6.3 -33.6°
Reaches altitude 10° 19:55:21 10° 264° (W) 2,457 5.4 -34.2°
Maximum altitude 19:59:20 19° 309° (NW) 1,880 4.4 -35.0°
Enters shadow 20:01:14 17° 334° (NNW) 2,028 4.4 -35.3°
